Plymouth, MA

7:52 PM EDT on July 27, 2017 (GMT -0400)
Plymouth Municipal

Weather History for KPYM - April, 2013

Change the Weather History Date:

Tuesday, April 9, 2013

  Actual Average Record
Temperature  
Mean Temperature 60 °F -  
Max Temperature 75 °F 51 °F 80 °F (1991)
Min Temperature 45 °F 31 °F 20 °F (1973)
Degree Days  
Heating Degree Days 5    
Growing Degree Days 10 (Base 50)    
Moisture  
Dew Point 44 °F    
Average Humidity 72    
Maximum Humidity 94    
Minimum Humidity 35    
Precipitation  
Precipitation 0.01 in - - ()
Sea Level Pressure  
Sea Level Pressure 29.95 in    
Wind  
Wind Speed 7 mph (SSW)    
Max Wind Speed 18 mph    
Max Gust Speed 28 mph    
Visibility 8 miles    
Events Rain , Thunderstorm    
Averages and records for this station are not official NWS values.
T = Trace of Precipitation, MM = Missing Value Source: NWS Daily Summary

Daily Weather History Graph

Daily Weather History Graph

Search for Another Location

Airport or City:

Trip Planner

Search our weather history database for the weather conditions in past years. The results will help you decide how hot, cold, wet, or windy it might be!

Date:

Astronomy

Apr. 09, 2013 Rise Set
Actual Time 6:11 AM EDT 7:17 PM EDT
Civil Twilight 5:43 AM EDT 7:46 PM EDT
Nautical Twilight 5:09 AM EDT 8:20 PM EDT
Astronomical Twilight 4:33 AM EDT 8:56 PM EDT
Moon 5:33 AM EDT (4/9) 6:50 PM EDT (4/9)
Length of Visible Light 14h 02m
Length of Day
13h 05m
Waning Crescent, 1% of the Moon is Illuminated
Apr 9
Waning Crescent
Apr 10
New
Apr 18
First Quarter
Apr 25
Full
May 2
Last Quarter

Hourly Weather History & Observations

Time (EDT) Temp. Windchill Dew Point Humidity Pressure Visibility Wind Dir Wind Speed Gust Speed Precip Events Conditions
12:52 AM 46.9 °F - 36.0 °F 66% 30.10 in 10.0 mi Variable 4.6 mph - N/A   Clear
1:52 AM 46.9 °F - 36.0 °F 66% 30.07 in 10.0 mi Variable 3.5 mph - N/A   Overcast
2:52 AM 46.9 °F - 37.0 °F 68% 30.05 in 10.0 mi South 4.6 mph - N/A   Mostly Cloudy
3:52 AM 48.0 °F - 37.9 °F 68% 30.01 in 10.0 mi SSE 4.6 mph - N/A   Scattered Clouds
4:52 AM 48.0 °F - 39.9 °F 74% 29.98 in 10.0 mi Variable 5.8 mph - 0.00 in Rain Light Rain
5:24 AM 48.2 °F - 42.8 °F 82% 29.96 in 10.0 mi South 8.1 mph 18.4 mph 0.00 in   Mostly Cloudy
5:32 AM 48.2 °F - 42.8 °F 82% 29.97 in 10.0 mi SSW 10.4 mph - 0.00 in   Mostly Cloudy
5:52 AM 48.0 °F - 44.1 °F 86% 29.94 in 8.0 mi SSE 9.2 mph 17.3 mph 0.00 in Rain Light Rain
6:07 AM 48.2 °F - 44.6 °F 87% 29.94 in 7.0 mi South 9.2 mph - N/A   Overcast
6:22 AM 48.2 °F - 46.4 °F 93% 29.94 in 5.0 mi South 9.2 mph - N/A Thunderstorm Overcast
6:52 AM 50.0 °F - 46.0 °F 86% 29.93 in 5.0 mi Variable 6.9 mph - 0.01 in   Overcast
7:24 AM 50.0 °F - 46.4 °F 87% 29.94 in 2.0 mi SSW 8.1 mph - N/A   Overcast
7:34 AM 50.0 °F - 48.2 °F 94% 29.93 in 1.8 mi SSW 6.9 mph - N/A   Overcast
7:52 AM 50.0 °F - 48.0 °F 93% 29.93 in 2.0 mi SSW 6.9 mph - N/A   Overcast
8:08 AM 51.8 °F - 48.2 °F 88% 29.92 in 3.0 mi SSW 9.2 mph - N/A   Overcast
8:52 AM 51.1 °F - 48.0 °F 89% 29.90 in 5.0 mi SW 8.1 mph - N/A   Overcast
9:39 AM 55.4 °F - 48.2 °F 77% 29.88 in 9.0 mi SW 10.4 mph - N/A   Overcast
9:52 AM 55.9 °F - 50.0 °F 80% 29.89 in 10.0 mi SW 10.4 mph - N/A   Mostly Cloudy
10:06 AM 57.2 °F - 50.0 °F 77% 29.88 in 10.0 mi SW 10.4 mph - N/A   Partly Cloudy
10:52 AM 64.9 °F - 51.1 °F 61% 29.88 in 10.0 mi WSW 11.5 mph - N/A   Clear
11:52 AM 69.1 °F - 48.9 °F 49% 29.87 in 10.0 mi West 11.5 mph 20.7 mph N/A   Clear
12:52 PM 72.0 °F - 48.9 °F 44% 29.86 in 10.0 mi WNW 13.8 mph 18.4 mph N/A   Partly Cloudy
1:47 PM 75.2 °F - 46.4 °F 36% 29.86 in 10.0 mi West 15.0 mph 27.6 mph N/A   Scattered Clouds
1:52 PM 75.0 °F - 46.9 °F 37% 29.86 in 10.0 mi WNW 18.4 mph 26.5 mph N/A   Partly Cloudy
2:52 PM 73.9 °F - 45.0 °F 35% 29.87 in 10.0 mi NW 10.4 mph 21.9 mph N/A   Clear
3:52 PM 63.0 °F - 46.0 °F 54% 29.89 in 10.0 mi ENE 12.7 mph - N/A   Clear
4:52 PM 55.0 °F - 44.1 °F 67% 29.93 in 10.0 mi NE 11.5 mph - N/A   Clear
5:52 PM 57.0 °F - 44.1 °F 62% 29.96 in 10.0 mi NE 6.9 mph - N/A   Clear
6:52 PM 52.0 °F - 42.1 °F 69% 29.98 in 10.0 mi ENE 9.2 mph - N/A   Clear
7:52 PM 50.0 °F - 41.0 °F 71% 30.01 in 10.0 mi East 3.5 mph - N/A   Clear
8:52 PM 46.9 °F - 39.9 °F 77% 30.03 in 10.0 mi East 4.6 mph - N/A   Clear
9:52 PM 45.0 °F - 39.0 °F 80% 30.05 in 10.0 mi Calm Calm - N/A   Clear
10:52 PM 46.0 °F 44.8 °F 39.9 °F 79% 30.03 in 10.0 mi ESE 3.5 mph - N/A   Clear
11:52 PM 46.9 °F - 39.9 °F 77% 30.00 in 10.0 mi ESE 3.5 mph - N/A   Partly Cloudy